This demonstration page uses our WeatherBlox Daily Observations layout. Learn more.

Left ArrowRight Arrow

44.8408, -93.29828

Hourly Observations for August 21, 2017

Temp ( °F °C ) Dew Point ( °F °C ) Humidity (%) Winds ( mph kmh ) Pressure ( in mb ) Visibility ( mi km ) Precip ( " mm )
12:53 am 00:53 Mostly Clear 70 21.1 63 17.2 79 79 NNE 5 7 30.01 1016 10 16 0.00 0.00
1:53 am 01:53 Mostly Clear 68 20 61 16.1 78 78 NNE 7 11 29.98 1015 10 16 0.00 0.00
2:53 am 02:53 Mostly Cloudy 69 20.6 59 15 70 70 NE 5 7 30.01 1016 10 16 0.00 0.00
3:53 am 03:53 Cloudy 69 20.6 58 14.4 68 68 ENE 6 9 30.01 1016 10 16 0.00 0.00
4:53 am 04:53 Mostly Clear 67 19.4 56 13.3 68 68 E 7 11 30.01 1016 10 16 0.00 0.00
5:53 am 05:53 Mostly Cloudy 66 18.9 57 13.9 73 73 VRB 5 7 30.03 1017 10 16 0.00 0.00
6:53 am 06:53 Mostly Cloudy 68 20 57 13.9 68 68 ENE 6 9 30.02 1017 10 16 0.00 0.00
7:53 am 07:53 Mostly Cloudy 68 20 59 15 73 73 SE 5 7 30.03 1017 10 16 0.00 0.00
8:53 am 08:53 Mostly Cloudy 68 20 60 15.6 76 76 NE 5 7 30.02 1017 10 16 0.00 0.00
9:53 am 09:53 Mostly Cloudy 73 22.8 63 17.2 71 71 ENE 6 9 29.97 1015 10 16 0.00 0.00
10:53 am 10:53 Mostly Cloudy 78 25.6 64 17.8 62 62 VRB 3 6 29.98 1015 10 16 0.00 0.00
11:53 am 11:53 Mostly Cloudy 79 26.1 64 17.8 60 60 Calm 29.96 1015 10 16 0.00 0.00
12:53 pm 12:53 Mostly Cloudy 78 25.6 62 16.7 58 58 W 7 11 29.96 1015 10 16 0.00 0.00
1:53 pm 13:53 Cloudy 77 25 64 17.8 64 64 SSE 7 11 29.92 1013 10 16 0.00 0.00
2:47 pm 14:47 Cloudy with Nearby Thunderstorms 73 23 66 19 78 78 SSW 16 26 29.91 1013 7 11 0.12 3.05
2:53 pm 14:53 Cloudy with Nearby Thunderstorms 73 22.8 66 18.9 79 79 S 22 35 29.92 1013 7 11 0.13 3.30
3:06 pm 15:06 Cloudy with Rain 72 22.2 67 19.4 84 84 SSE 28 44 29.85 1011 7 11 0.03 0.76
3:11 pm 15:11 Cloudy with Rain 71 21.7 66 18.9 84 84 SSE 36 57 29.77 1008 7 11 0.03 0.76
3:16 pm 15:16 Cloudy with Nearby Thunderstorms 71 21.7 66 18.9 84 84 SSE 30 48 29.77 1008 7 11 0.05 1.27
3:30 pm 15:30 Cloudy 72 22.2 66 18.9 82 82 SSE 24 39 29.80 1009 10 16 0.05 1.27
3:53 pm 15:53 Cloudy 72 22.2 66 18.9 82 82 S 12 19 29.86 1011 10 16 0.05 1.27
4:21 pm 16:21 Cloudy with Light Rain 72 22.2 67 19.4 84 84 SSW 16 26 29.88 1012 10 16 0.01 0.25
4:29 pm 16:29 Cloudy with Light Rain 72 22.2 66 18.9 82 82 SSW 14 22 29.88 1012 10 16 0.01 0.25
4:53 pm 16:53 Cloudy 70 21.1 65 18.3 84 84 SSW 8 13 29.90 1013 10 16 0.01 0.25
5:53 pm 17:53 Cloudy 69 20.6 65 18.3 87 87 S 6 9 29.86 1011 10 16 0.00 0.00
6:15 pm 18:15 Cloudy 69 20.6 65 18.3 87 87 N 5 7 29.85 1011 10 16 0.00 0.00
6:53 pm 18:53 Cloudy 70 21.1 65 18.3 84 84 W 5 7 29.86 1011 10 16 0.00 0.00
7:02 pm 19:02 Cloudy 70 21.1 65 18.3 84 84 W 7 11 29.88 1012 10 16 0.00 0.00
7:53 pm 19:53 Mostly Cloudy 70 21.1 64 17.8 82 82 WSW 9 15 29.86 1011 10 16 0.00 0.00
8:13 pm 20:13 Mostly Cloudy 70 21.1 64 17.8 82 82 W 16 26 29.88 1012 10 16 0.00 0.00
8:53 pm 20:53 Mostly Cloudy 69 20.6 63 17.2 81 81 WSW 8 13 29.85 1011 10 16 0.00 0.00
9:53 pm 21:53 Cloudy 69 20.6 63 17.2 81 81 W 12 19 29.85 1011 10 16 0.00 0.00
10:07 pm 22:07 Cloudy 69 20.6 63 17.2 81 81 W 13 20 29.85 1011 10 16 0.00 0.00
10:53 pm 22:53 Cloudy 70 21.1 64 17.8 82 82 WNW 14 22 29.85 1011 10 16 0.00 0.00
11:51 pm 23:51 Partly Cloudy 70 21 63 17 78 78 W 10 17 29.88 1012 10 16 0.00 0.00
11:53 pm 23:53 Mostly Clear 68 20 63 17.2 84 84 W 10 17 29.85 1011 10 16 0.00 0.00

Powered by AerisWeather